STARLINK-33732, 63575

Orbit data source: Space-Track

STARLINK-33732, 63575 is a payload satellite owned by SpaceX/Seattle (US) in LEO that was launched on Mon, 14 Apr 2025 UTC via an FALCON 9 launch vehicle from the Air Force Eastern Test Range (AFETR). Payload-class satellites include a variety of spacecraft equipped with specific instruments for various scientific and technological missions. These include communications satellites like Starlink; space stations such as the ISS; scientific satellites like the Hubble; Earth observation satellites from companies like Planet Labs, Umbra, and HawkEye 360; GPS; miniature CubeSats for education and research; and military/defense satellites.

Loading next visibility...
Identifier
63575, 2025-076G
Orbit
LEO
Country
Flag of USUS
Related business
Manufacturer
SpaceX/Seattle
Mission
Operational Commercial Communications
Bus & Motor
STARLINK V2MO, Unknown motor
Mass
575 kg wet, ~530 kg dry
Launch date (UTC)
2025-04-14 (1 year ago)
Launch vehicle
FALCON 9
Launch site
Air Force Eastern Test Range (AFETR)
Object type
Payload
Rocket body
Debris
Shape & HBR
Box + 2 Pan, 17.7 m
Radar Cross Section
36.964 m², Large (>1 m²)

Expand to show TLE details & history
Last TLE update: 17 hours ago

TLE from 17 hours ago
0 STARLINK-33732
1 63575U 25076G   26144.70114222  .00016594  00000-0  61065-3 0  9998
2 63575  43.0011 252.5790 0001791 276.4936  83.5711 15.27608807 63459
Epoch: 2026-05-24T16:49Z
TLE epoch observation values (Epoch: 2026-05-24T16:49:38.687Z)
Latitude
-0.00008°
Longitude
117.86821°
Altitude
482.601 km
Speed
7.626 km/s
True Right ascension
16h 50m 18s
True Declination
0° 00' 00"
Sunlit
Object was in full shadow at epoch
Visualization orbit readout
Latitude
Unknown
Longitude
Unknown
Altitude
Unknown
Speed
Unknown
Apparent Right ascension
Unknown
Apparent Declination
Unknown
Sunlit
N/A
Visualization observer readout
Local Sidereal Time
18:36:18
Azimuth
Unknown
Elevation
Unknown
Doppler factor
Unknown
Orbital elements
Apogee altitude
486.137 km
Perigee altitude
483.679 km
Semi-major axis
6,863.045 km
Eccentricity
0.00018
Inclination
43.0011°
RAAN
252.579°
Arg. of periapsis
276.4936°
True anomaly
83.59149°
Mean anomaly
83.5711°
Eccentric anomaly
83.5813°
Mean motion
3.8174 °/min
Orbital period
94.3 mins
BSTAR
0.00061065
Loading maneuver chart data...
Computing Atmospheric mass density...
Loading historical data...
Loading historical data...
Loading historical data...
Loading historical data...
Loading historical data...
Loading historical data...
Loading historical data...

Documentation

Showing up to 5 results
|